CZ-4 DEB, 26446

Orbit data source: Space-Track

CZ-4 DEB, 26446 is space debris in SSO originally from a launch on Thu, 14 Oct 1999 UTC launched from the Taiyaun Space Center, China (TSC). Debris objects in space refer to the collection of defunct objects orbiting the Earth. Examples of debris include non-operational satellites, rocket bodies, and fragments generated from explosions, collisions, or faulty payload assembly.

Loading next visibility...
Identifier
26446, 1999-057KT
Orbit
SSO
Country
Flag of CNCN / PRC
Related business
Manufacturer
Unknown
Mission
Spacecraft
Bus & Motor
Unknown
Mass
Unknown
Launch date (UTC)
1999-10-14 (26 years ago)
Launch vehicle
Unknown
Launch site
Taiyaun Space Center, China (TSC)
Object type
Payload
Rocket body
Debris
Shape & HBR
Unknown shape, 0.1 m
Radar Cross Section
Small (<0.1 m²)

Expand to show TLE details & history
Last TLE update: 21 hours ago

TLE from 21 hours ago
0 CZ-4 DEB
1 26446U 99057KT  25300.84911877  .00002766  00000-0  71478-3 0  9998
2 26446  98.5822   4.7758 0095996 103.5863 257.6044 14.48022527337414
Epoch: 2025-10-27T20:22Z
TLE epoch observation values (Epoch: 2025-10-27T20:22:43.861Z)
Latitude
-0°
Longitude
22.64798°
Altitude
750.35 km
Speed
7.471 km/s
True Right ascension
00h 19m 06s
True Declination
0° 00' 00"
Sunlit
Object was in full shadow at epoch
Visualization orbit readout
Latitude
Unknown
Longitude
Unknown
Altitude
Unknown
Speed
Unknown
Apparent Right ascension
Unknown
Apparent Declination
Unknown
Sunlit
N/A
Visualization observer readout
Local Sidereal Time
13:15:43
Azimuth
Unknown
Elevation
Unknown
Doppler factor
Unknown
Orbital elements
Apogee altitude
797.457 km
Perigee altitude
661.001 km
Semi-major axis
7,107.366 km
Eccentricity
0.0096
Inclination
98.5822°
RAAN
4.7758°
Arg. of periapsis
103.5863°
True anomaly
256.53283°
Mean anomaly
257.6044°
Eccentric anomaly
257.06833°
Mean motion
3.62226 °/min
Orbital period
99.39 mins
BSTAR
0.00071478
Loading maneuver chart data...
Computing Atmospheric mass density...
Loading historical data...
Loading historical data...
Loading historical data...
Loading historical data...
Loading historical data...
Loading historical data...
Loading historical data...

Documentation

Showing up to 5 results
|